| time (UTC) | temp F | wind direction | speed MPH | gust MPH | rain 1hr in | rain 24hr in | rain mn in | humidity % | barometer mb |
| 20260902191155 | 56 | 76 | 0.0 | 0.0 | 0.24 | 0.31 | 0.31 | 98 | 1007.4 |
| 20260902190651 | 56 | 76 | 0.0 | 0.0 | 0.31 | 0.29 | 0.29 | 98 | 1007.5 |
| 20260902190146 | 56 | 76 | 0.0 | 0.0 | 0.24 | 0.27 | 0.27 | 98 | 1007.3 |
| 20260902185641 | 56 | 77 | 0.0 | 0.0 | 0.17 | 0.24 | 0.24 | 98 | 1007.4 |
| 20260902185137 | 56 | 76 | 0.0 | 0.0 | 0.19 | 0.23 | 0.23 | 98 | 1007.4 |
| 20260902184632 | 56 | 76 | 0.0 | 0.0 | 0.12 | 0.21 | 0.21 | 98 | 1007.7 |
| 20260902184127 | 56 | 76 | 0.0 | 0.0 | 0.12 | 0.20 | 0.20 | 98 | 1007.4 |
| 20260902183623 | 56 | 76 | 0.0 | 0.0 | 0.12 | 0.19 | 0.19 | 98 | 1007.5 |
| 20260902183120 | 56 | 77 | 0.0 | 0.0 | 0.12 | 0.18 | 0.18 | 98 | 1007.6 |
| 20260902182616 | 56 | 76 | 0.0 | 0.0 | 0.00 | 0.16 | 0.16 | 98 | 1007.6 |
| 20260902182112 | 56 | 76 | 0.0 | 0.0 | 0.07 | 0.16 | 0.16 | 98 | 1007.3 |
| 20260902181608 | 56 | 76 | 0.0 | 0.0 | 0.07 | 0.16 | 0.16 | 98 | 1007.9 |
| 20260902181107 | 56 | 77 | 0.0 | 0.0 | 0.05 | 0.15 | 0.15 | 98 | 1007.7 |
| 20260902180607 | 56 | 76 | 0.0 | 0.0 | 0.05 | 0.15 | 0.15 | 98 | 1007.8 |
| 20260902175602 | 56 | 77 | 0.0 | 0.0 | 0.07 | 0.14 | 0.14 | 98 | 1008.0 |
| 20260902175058 | 56 | 77 | 0.0 | 0.0 | 0.05 | 0.13 | 0.13 | 98 | 1008.1 |
| 20260902174554 | 56 | 77 | 0.0 | 0.0 | 0.05 | 0.13 | 0.13 | 98 | 1008.3 |
| 20260902174049 | 56 | 76 | 0.0 | 0.0 | 0.07 | 0.12 | 0.12 | 98 | 1008.0 |
| 20260902173544 | 57 | 76 | 0.0 | 0.0 | 0.00 | 0.11 | 0.11 | 97 | 1008.2 |
| 20260902173039 | 57 | 77 | 0.0 | 0.0 | 0.05 | 0.11 | 0.11 | 97 | 1008.3 |
| 20260902172533 | 56 | 77 | 0.0 | 0.0 | 0.05 | 0.11 | 0.11 | 97 | 1008.2 |
| 20260902172028 | 56 | 77 | 0.0 | 0.0 | 0.07 | 0.10 | 0.10 | 97 | 1008.4 |
| 20260902171524 | 57 | 77 | 0.0 | 0.0 | 0.05 | 0.09 | 0.09 | 97 | 1008.3 |
| 20260902171020 | 56 | 77 | 0.0 | 0.0 | 0.05 | 0.09 | 0.09 | 96 | 1008.4 |
| 20260902170514 | 56 | 77 | 0.0 | 0.0 | 0.07 | 0.08 | 0.08 | 96 | 1008.4 |
| 20260902170010 | 56 | 76 | 0.0 | 0.0 | 0.05 | 0.07 | 0.07 | 95 | 1008.1 |
| 20260902165509 | 56 | 77 | 0.0 | 0.0 | 0.05 | 0.07 | 0.07 | 95 | 1008.3 |
| 20260902165004 | 56 | 77 | 0.0 | 0.0 | 0.07 | 0.06 | 0.06 | 94 | 1008.3 |
| 20260902164459 | 56 | 77 | 0.0 | 0.0 | 0.07 | 0.06 | 0.06 | 93 | 1008.2 |
| 20260902163958 | 56 | 77 | 0.0 | 0.0 | 0.00 | 0.05 | 0.05 | 92 | 1008.2 |
| 20260902163454 | 56 | 77 | 0.0 | 0.0 | 0.00 | 0.05 | 0.05 | 91 | 1008.2 |
| 20260902162951 | 56 | 77 | 0.0 | 0.0 | 0.00 | 0.05 | 0.05 | 90 | 1008.3 |
| 20260902162447 | 56 | 77 | 0.0 | 0.0 | 0.07 | 0.05 | 0.05 | 90 | 1008.3 |
| 20260902161947 | 56 | 77 | 0.0 | 0.0 | 0.07 | 0.05 | 0.05 | 90 | 1008.5 |
| 20260902161442 | 56 | 77 | 0.0 | 0.0 | 0.00 | 0.04 | 0.04 | 89 | 1008.5 |
| 20260902160938 | 56 | 77 | 0.0 | 0.0 | 0.00 | 0.04 | 0.04 | 89 | 1008.3 |
| 20260902160433 | 56 | 77 | 0.0 | 0.0 | 0.05 | 0.04 | 0.04 | 89 | 1008.6 |
| 20260902155931 | 56 | 77 | 0.0 | 0.0 | 0.00 | 0.03 | 0.03 | 89 | 1008.7 |
| 20260902155427 | 56 | 77 | 0.0 | 0.0 | 0.07 | 0.03 | 0.03 | 89 | 1008.4 |
| 20260902154920 | 56 | 77 | 0.0 | 0.0 | 0.00 | 0.02 | 0.02 | 89 | 1008.6 |
| 20260902154416 | 56 | 76 | 0.0 | 0.0 | 0.05 | 0.02 | 0.02 | 89 | 1008.5 |
| 20260902153915 | 56 | 77 | 0.0 | 0.0 | 0.00 | 0.01 | 0.01 | 88 | 1008.6 |
| 20260902153414 | 56 | 77 | 0.0 | 0.0 | 0.00 | 0.01 | 0.01 | 89 | 1008.8 |
| 20260902152910 | 56 | 77 | 0.0 | 0.0 | 0.00 | 0.01 | 0.01 | 89 | 1008.7 |
| 20260902152406 | 56 | 76 | 0.0 | 0.0 | 0.00 | 0.01 | 0.01 | 88 | 1008.7 |
| 20260902151901 | 56 | 76 | 0.0 | 0.0 | 0.07 | 0.01 | 0.01 | 88 | 1008.7 |
| 20260902151356 | 56 | 76 | 0.0 | 0.0 | 0.07 | 0.01 | 0.01 | 89 | 1009.0 |
| 20260902150851 | 56 | 77 | 0.0 | 0.0 | 0.00 | 0.00 | 0.00 | 89 | 1008.9 |
| 20260902150347 | 56 | 76 | 0.0 | 0.0 | 0.00 | 0.00 | 0.00 | 89 | 1008.9 |
| 20260902145846 | 56 | 76 | 0.0 | 0.0 | 0.00 | 0.00 | 0.00 | 89 | 1008.9 |
| 20260902145342 | 56 | 77 | 0.0 | 0.0 | 0.00 | 0.00 | 0.00 | 89 | 1009.0 |
| 20260902144837 | 56 | 77 | 0.0 | 0.0 | 0.00 | 0.00 | 0.00 | 89 | 1009.4 |
| 20260902144333 | 56 | 77 | 0.0 | 0.0 | 0.00 | 0.00 | 0.00 | 88 | 1009.2 |
| 20260902143828 | 56 | 77 | 0.0 | 0.0 | 0.00 | 0.00 | 0.00 | 89 | 1009.4 |
| 20260902143328 | 56 | 77 | 0.0 | 0.0 | 0.00 | 0.00 | 0.00 | 89 | 1009.2 |
| 20260902142824 | 56 | 77 | 0.0 | 0.0 | 0.00 | 0.00 | 0.00 | 88 | 1009.5 |
| 20260902142320 | 56 | 77 | 0.0 | 0.0 | 0.00 | 0.00 | 0.00 | 89 | 1009.4 |
| 20260902141815 | 56 | 77 | 0.0 | 0.0 | 0.00 | 0.00 | 0.00 | 89 | 1009.5 |
| 20260902141310 | 55 | 77 | 0.0 | 0.0 | 0.00 | 0.00 | 0.00 | 89 | 1009.3 |
| 20260902140804 | 55 | 77 | 0.0 | 0.0 | 0.00 | 0.00 | 0.00 | 89 | 1009.3 |
| 20260902140259 | 55 | 77 | 0.0 | 0.0 | 0.00 | 0.00 | 0.00 | 89 | 1009.5 |
| 20260902135758 | 55 | 77 | 0.0 | 0.0 | 0.00 | 0.00 | 0.00 | 89 | 1009.4 |
| 20260902135254 | 55 | 77 | 0.0 | 0.0 | 0.00 | 0.00 | 0.00 | 89 | 1009.5 |
| 20260902134754 | 55 | 77 | 0.0 | 0.0 | 0.00 | 0.00 | 0.00 | 89 | 1009.6 |
| 20260902134249 | 55 | 77 | 0.0 | 0.0 | 0.00 | 0.00 | 0.00 | 89 | 1009.6 |
| 20260902133745 | 55 | 77 | 0.0 | 0.0 | 0.00 | 0.00 | 0.00 | 89 | 1009.6 |
| 20260902133244 | 55 | 77 | 0.0 | 0.0 | 0.00 | 0.00 | 0.00 | 89 | 1009.6 |
| 20260902132739 | 55 | 77 | 0.0 | 0.0 | 0.00 | 0.00 | 0.00 | 89 | 1009.6 |
| 20260902132235 | 55 | 77 | 0.0 | 0.0 | 0.00 | 0.00 | 0.00 | 89 | 1009.7 |
| 20260902131730 | 55 | 77 | 0.0 | 0.0 | 0.00 | 0.00 | 0.00 | 89 | 1009.8 |
| 20260902131227 | 55 | 77 | 0.0 | 0.0 | 0.00 | 0.00 | 0.00 | 88 | 1009.9 |
| 20260902130726 | 56 | 77 | 0.0 | 0.0 | 0.00 | 0.00 | 0.00 | 88 | 1010.1 |
| 20260902130222 | 56 | 77 | 0.0 | 0.0 | 0.00 | 0.00 | 0.00 | 88 | 1010.2 |
| 20260902125717 | 56 | 77 | 0.0 | 0.0 | 0.00 | 0.00 | 0.00 | 88 | 1010.1 |
| 20260902125213 | 56 | 77 | 0.0 | 0.0 | 0.00 | 0.00 | 0.00 | 88 | 1010.2 |
| 20260902124709 | 56 | 77 | 0.0 | 0.0 | 0.00 | 0.00 | 0.00 | 88 | 1010.4 |
| 20260902124209 | 56 | 77 | 0.0 | 0.0 | 0.00 | 0.00 | 0.00 | 88 | 1010.4 |
| 20260902123705 | 56 | 77 | 0.0 | 0.0 | 0.00 | 0.00 | 0.00 | 88 | 1010.7 |
| 20260902123200 | 56 | 77 | 0.0 | 0.0 | 0.00 | 0.00 | 0.00 | 88 | 1010.8 |
| 20260902122654 | 56 | 77 | 0.0 | 0.0 | 0.00 | 0.00 | 0.00 | 88 | 1010.7 |
| 20260902122150 | 56 | 77 | 0.0 | 0.0 | 0.00 | 0.00 | 0.00 | 88 | 1011.0 |
| 20260902121644 | 56 | 77 | 0.0 | 0.0 | 0.00 | 0.00 | 0.00 | 88 | 1010.6 |
| 20260902121139 | 56 | 77 | 0.0 | 0.0 | 0.00 | 0.00 | 0.00 | 88 | 1010.7 |
| 20260902120635 | 55 | 77 | 0.0 | 0.0 | 0.00 | 0.00 | 0.00 | 88 | 1010.8 |
| 20260902120131 | 55 | 77 | 0.0 | 0.0 | 0.00 | 0.00 | 0.00 | 88 | 1010.8 |
| 20260902115620 | 55 | 77 | 0.0 | 0.0 | 0.00 | 0.00 | 0.00 | 88 | 1010.8 |
| 20260902115116 | 55 | 77 | 0.0 | 0.0 | 0.00 | 0.00 | 0.00 | 89 | 1010.9 |
| 20260902114612 | 55 | 77 | 0.0 | 0.0 | 0.00 | 0.00 | 0.00 | 89 | 1011.0 |
| 20260902114112 | 55 | 77 | 0.0 | 0.0 | 0.00 | 0.00 | 0.00 | 89 | 1011.1 |
| 20260902113608 | 55 | 77 | 0.0 | 0.0 | 0.00 | 0.00 | 0.00 | 89 | 1011.2 |
| 20260902113102 | 55 | 77 | 0.0 | 0.0 | 0.00 | 0.00 | 0.00 | 89 | 1011.3 |
| 20260902112558 | 55 | 77 | 0.0 | 0.0 | 0.00 | 0.00 | 0.00 | 89 | 1011.3 |
| 20260902112054 | 55 | 77 | 0.0 | 0.0 | 0.00 | 0.00 | 0.00 | 89 | 1011.4 |
| 20260902111550 | 55 | 77 | 0.0 | 0.0 | 0.00 | 0.00 | 0.00 | 88 | 1011.6 |
| 20260902111045 | 55 | 77 | 0.0 | 0.0 | 0.00 | 0.00 | 0.00 | 88 | 1011.5 |
| 20260902110536 | 55 | 77 | 0.0 | 0.0 | 0.00 | 0.00 | 0.00 | 88 | 1011.5 |
| 20260902110031 | 55 | 77 | 0.0 | 0.0 | 0.00 | 0.00 | 0.00 | 88 | 1011.5 |
| 20260902105531 | 55 | 77 | 0.0 | 0.0 | 0.00 | 0.00 | 0.00 | 88 | 1011.3 |
| 20260902105025 | 55 | 77 | 0.0 | 0.0 | 0.00 | 0.00 | 0.00 | 88 | 1011.5 |
| 20260902104521 | 55 | 77 | 0.0 | 0.0 | 0.00 | 0.00 | 0.00 | 88 | 1011.5 |
| 20260902104016 | 55 | 77 | 0.0 | 0.0 | 0.00 | 0.00 | 0.00 | 88 | 1011.4 |
| 20260902103511 | 54 | 77 | 0.0 | 0.0 | 0.00 | 0.00 | 0.00 | 88 | 1011.3 |
| 20260902103006 | 54 | 77 | 0.0 | 0.0 | 0.00 | 0.00 | 0.00 | 88 | 1011.6 |
| 20260902102503 | 54 | 77 | 0.0 | 0.0 | 0.00 | 0.00 | 0.00 | 88 | 1011.6 |
| 20260902101959 | 54 | 77 | 0.0 | 0.0 | 0.00 | 0.00 | 0.00 | 88 | 1011.7 |
| 20260902101454 | 54 | 77 | 0.0 | 0.0 | 0.00 | 0.00 | 0.00 | 88 | 1011.9 |
| 20260902100953 | 54 | 77 | 0.0 | 0.0 | 0.00 | 0.00 | 0.00 | 88 | 1011.9 |
| 20260902100448 | 54 | 77 | 0.0 | 0.0 | 0.00 | 0.00 | 0.00 | 88 | 1011.6 |
| 20260902095948 | 54 | 77 | 0.0 | 0.0 | 0.00 | 0.00 | 0.00 | 88 | 1011.7 |
| 20260902095443 | 54 | 77 | 0.0 | 0.0 | 0.00 | 0.00 | 0.00 | 88 | 1011.7 |
| 20260902094941 | 54 | 77 | 0.0 | 0.0 | 0.00 | 0.00 | 0.00 | 88 | 1011.8 |
| 20260902094437 | 54 | 77 | 0.0 | 0.0 | 0.00 | 0.00 | 0.00 | 88 | 1011.7 |
| 20260902093932 | 54 | 77 | 0.0 | 0.0 | 0.00 | 0.00 | 0.00 | 88 | 1011.9 |
| 20260902093427 | 54 | 77 | 0.0 | 0.0 | 0.00 | 0.00 | 0.00 | 88 | 1011.7 |
| 20260902092926 | 54 | 77 | 0.0 | 0.0 | 0.00 | 0.00 | 0.00 | 88 | 1011.8 |
| 20260902092417 | 54 | 77 | 0.0 | 0.0 | 0.00 | 0.00 | 0.00 | 88 | 1011.9 |
| 20260902091916 | 54 | 77 | 0.0 | 0.0 | 0.00 | 0.00 | 0.00 | 87 | 1012.0 |
| 20260902091412 | 54 | 77 | 0.0 | 0.0 | 0.00 | 0.00 | 0.00 | 87 | 1011.9 |
| 20260902090909 | 54 | 77 | 0.0 | 0.0 | 0.00 | 0.00 | 0.00 | 87 | 1012.0 |
| 20260902090408 | 54 | 77 | 0.0 | 0.0 | 0.00 | 0.00 | 0.00 | 87 | 1012.2 |
| 20260902085907 | 54 | 77 | 0.0 | 0.0 | 0.00 | 0.00 | 0.00 | 86 | 1012.2 |
| 20260902085403 | 54 | 77 | 0.0 | 0.0 | 0.00 | 0.00 | 0.00 | 86 | 1012.2 |
| 20260902084858 | 54 | 77 | 0.0 | 0.0 | 0.00 | 0.00 | 0.00 | 86 | 1012.6 |
| 20260902084354 | 55 | 77 | 0.0 | 0.0 | 0.00 | 0.00 | 0.00 | 86 | 1012.2 |
| 20260902083849 | 55 | 77 | 0.0 | 0.0 | 0.00 | 0.00 | 0.00 | 85 | 1012.4 |
| 20260902083349 | 55 | 77 | 0.0 | 0.0 | 0.00 | 0.00 | 0.00 | 85 | 1012.9 |
| 20260902082844 | 56 | 77 | 0.0 | 0.0 | 0.00 | 0.00 | 0.00 | 85 | 1012.7 |
| 20260902082340 | 56 | 77 | 0.0 | 0.0 | 0.00 | 0.00 | 0.00 | 84 | 1012.8 |
| 20260902081836 | 56 | 77 | 0.0 | 0.0 | 0.00 | 0.00 | 0.00 | 84 | 1012.6 |
| 20260902081332 | 56 | 77 | 0.0 | 0.0 | 0.00 | 0.00 | 0.00 | 84 | 1012.8 |
| 20260902080827 | 56 | 77 | 0.0 | 0.0 | 0.00 | 0.00 | 0.00 | 84 | 1012.9 |
| 20260902080324 | 56 | 77 | 0.0 | 0.0 | 0.00 | 0.00 | 0.00 | 84 | 1012.4 |
| 20260902075822 | 56 | 77 | 0.0 | 0.0 | 0.00 | 0.00 | 0.00 | 84 | 1012.3 |
| 20260902075319 | 56 | 77 | 0.0 | 0.0 | 0.00 | 0.00 | 0.00 | 83 | 1012.6 |
| 20260902074814 | 56 | 77 | 0.0 | 0.0 | 0.00 | 0.00 | 0.00 | 83 | 1012.8 |
| 20260902074310 | 56 | 77 | 0.0 | 0.0 | 0.00 | 0.00 | 0.00 | 83 | 1012.7 |
| 20260902073804 | 56 | 77 | 0.0 | 0.0 | 0.00 | 0.00 | 0.00 | 82 | 1012.8 |
| 20260902073300 | 56 | 77 | 0.0 | 0.0 | 0.00 | 0.00 | 0.00 | 83 | 1012.8 |
| 20260902072756 | 56 | 77 | 0.0 | 0.0 | 0.00 | 0.00 | 0.00 | 83 | 1012.8 |
| 20260902072251 | 56 | 77 | 0.0 | 0.0 | 0.00 | 0.00 | 0.00 | 83 | 1012.9 |
| 20260902071748 | 56 | 77 | 0.0 | 0.0 | 0.00 | 0.00 | 0.00 | 83 | 1013.0 |
| 20260902071243 | 56 | 77 | 0.0 | 0.0 | 0.00 | 0.00 | 0.00 | 83 | 1013.1 |
| 20260902070739 | 56 | 77 | 0.0 | 0.0 | 0.00 | 0.00 | 0.00 | 83 | 1013.0 |
| 20260902070238 | 56 | 77 | 0.0 | 0.0 | 0.00 | 0.00 | 0.00 | 83 | 1012.8 |
| 20260902065738 | 56 | 77 | 0.0 | 0.0 | 0.00 | 0.00 | 0.00 | 84 | 1013.1 |
| 20260902065233 | 56 | 77 | 0.0 | 0.0 | 0.00 | 0.00 | 0.00 | 84 | 1013.2 |
| 20260902064728 | 55 | 77 | 0.0 | 0.0 | 0.00 | 0.00 | 0.00 | 84 | 1013.0 |
| 20260902064224 | 55 | 77 | 0.0 | 0.0 | 0.00 | 0.00 | 0.00 | 84 | 1012.9 |
| 20260902063719 | 55 | 77 | 0.0 | 0.0 | 0.00 | 0.00 | 0.00 | 84 | 1013.1 |
| 20260902063214 | 55 | 77 | 0.0 | 0.0 | 0.00 | 0.00 | 0.00 | 84 | 1013.2 |
| 20260902062714 | 55 | 77 | 0.0 | 0.0 | 0.00 | 0.00 | 0.00 | 84 | 1013.2 |
| 20260902062209 | 55 | 77 | 0.0 | 0.0 | 0.00 | 0.00 | 0.00 | 84 | 1013.1 |
| 20260902061707 | 56 | 77 | 0.0 | 0.0 | 0.00 | 0.00 | 0.00 | 83 | 1013.0 |
| 20260902061203 | 56 | 77 | 0.0 | 0.0 | 0.00 | 0.00 | 0.00 | 83 | 1013.0 |
| 20260902060700 | 56 | 77 | 0.0 | 0.0 | 0.00 | 0.00 | 0.00 | 83 | 1012.9 |
| 20260902060155 | 56 | 77 | 0.0 | 0.0 | 0.00 | 0.00 | 0.00 | 82 | 1013.0 |
| 20260902055651 | 56 | 77 | 0.0 | 0.0 | 0.00 | 0.00 | 0.00 | 82 | 1013.2 |
| 20260902055147 | 57 | 77 | 0.0 | 0.0 | 0.00 | 0.00 | 0.00 | 82 | 1013.3 |
| 20260902054642 | 57 | 77 | 0.0 | 0.0 | 0.00 | 0.00 | 0.00 | 81 | 1013.4 |
| 20260902054137 | 57 | 77 | 0.0 | 0.0 | 0.00 | 0.00 | 0.00 | 81 | 1013.2 |
| 20260902053633 | 57 | 77 | 0.0 | 0.0 | 0.00 | 0.00 | 0.00 | 80 | 1013.4 |
| 20260902053132 | 58 | 77 | 0.0 | 0.0 | 0.00 | 0.00 | 0.00 | 79 | 1013.2 |
| 20260902052627 | 58 | 77 | 0.0 | 0.0 | 0.00 | 0.00 | 0.00 | 79 | 1013.5 |
| 20260902052123 | 58 | 77 | 0.0 | 0.0 | 0.00 | 0.00 | 0.00 | 80 | 1013.4 |
| 20260902051622 | 58 | 77 | 0.0 | 0.0 | 0.00 | 0.00 | 0.00 | 80 | 1013.4 |
| 20260902051121 | 58 | 77 | 0.0 | 0.0 | 0.00 | 0.00 | 0.00 | 80 | 1013.2 |
| 20260902050615 | 58 | 77 | 0.0 | 0.0 | 0.00 | 0.00 | 0.00 | 80 | 1013.2 |
| 20260902050111 | 58 | 77 | 0.0 | 0.0 | 0.00 | 0.00 | 0.00 | 79 | 1013.2 |
| 20260902045606 | 59 | 77 | 0.0 | 0.0 | 0.00 | 0.00 | 0.00 | 79 | 1013.3 |
| 20260902045057 | 59 | 77 | 0.0 | 0.0 | 0.00 | 0.00 | 0.00 | 79 | 1013.4 |
| 20260902044556 | 59 | 77 | 0.0 | 0.0 | 0.00 | 0.00 | 0.00 | 79 | 1013.7 |
| 20260902044052 | 59 | 77 | 0.0 | 0.0 | 0.00 | 0.00 | 0.00 | 78 | 1013.7 |
| 20260902043548 | 59 | 77 | 0.0 | 0.0 | 0.00 | 0.00 | 0.00 | 78 | 1013.6 |
| 20260902043043 | 59 | 77 | 0.0 | 0.0 | 0.00 | 0.00 | 0.00 | 78 | 1013.9 |
| 20260902042542 | 59 | 77 | 0.0 | 0.0 | 0.00 | 0.00 | 0.00 | 77 | 1013.6 |
| 20260902042037 | 59 | 77 | 0.0 | 0.0 | 0.00 | 0.00 | 0.00 | 78 | 1013.9 |
| 20260902041531 | 59 | 77 | 0.0 | 0.0 | 0.00 | 0.00 | 0.00 | 78 | 1013.8 |
| 20260902041027 | 59 | 77 | 0.0 | 0.0 | 0.00 | 0.00 | 0.00 | 79 | 1013.7 |
| 20260902040526 | 59 | 77 | 0.0 | 0.0 | 0.00 | 0.00 | 0.00 | 78 | 1013.7 |
| 20260902040027 | 58 | 77 | 0.0 | 0.0 | 0.00 | 0.00 | 0.00 | 79 | 1013.8 |
| 20260902035520 | 59 | 77 | 0.0 | 0.0 | 0.00 | 0.00 | 0.00 | 78 | 1013.9 |
| 20260902035016 | 59 | 77 | 0.0 | 0.0 | 0.00 | 0.00 | 0.00 | 78 | 1013.8 |
| 20260902034515 | 59 | 77 | 0.0 | 0.0 | 0.00 | 0.00 | 0.00 | 78 | 1013.6 |
| 20260902034014 | 59 | 77 | 0.0 | 0.0 | 0.00 | 0.00 | 0.00 | 78 | 1013.8 |
| 20260902033513 | 59 | 77 | 0.0 | 0.0 | 0.00 | 0.00 | 0.00 | 77 | 1013.8 |
| 20260902033008 | 59 | 77 | 0.0 | 0.0 | 0.00 | 0.00 | 0.00 | 77 | 1013.8 |
| 20260902032502 | 59 | 77 | 0.0 | 0.0 | 0.00 | 0.00 | 0.00 | 77 | 1013.7 |
| 20260902031956 | 59 | 77 | 0.0 | 0.0 | 0.00 | 0.00 | 0.00 | 76 | 1013.7 |
| 20260902031452 | 60 | 77 | 0.0 | 0.0 | 0.00 | 0.00 | 0.00 | 76 | 1013.7 |
| 20260902030948 | 60 | 77 | 0.0 | 0.0 | 0.00 | 0.00 | 0.00 | 74 | 1013.4 |
| 20260902030448 | 60 | 77 | 0.0 | 0.0 | 0.00 | 0.00 | 0.00 | 74 | 1013.4 |
| 20260902025946 | 60 | 77 | 0.0 | 0.0 | 0.00 | 0.00 | 0.00 | 74 | 1013.3 |
| 20260902025442 | 60 | 77 | 0.0 | 0.0 | 0.00 | 0.00 | 0.00 | 73 | 1013.3 |
| 20260902024937 | 60 | 77 | 0.0 | 0.0 | 0.00 | 0.00 | 0.00 | 73 | 1013.8 |
| 20260902024433 | 60 | 77 | 0.0 | 0.0 | 0.00 | 0.00 | 0.00 | 75 | 1013.3 |
| 20260902023927 | 60 | 77 | 0.0 | 0.0 | 0.00 | 0.00 | 0.00 | 73 | 1013.4 |
| 20260902023424 | 60 | 76 | 0.0 | 0.0 | 0.00 | 0.00 | 0.00 | 73 | 1013.4 |
| 20260902022922 | 60 | 77 | 0.0 | 0.0 | 0.00 | 0.00 | 0.00 | 73 | 1013.3 |
| 20260902022417 | 61 | 77 | 0.0 | 0.0 | 0.00 | 0.00 | 0.00 | 73 | 1013.2 |
| 20260902021914 | 61 | 77 | 0.0 | 0.0 | 0.00 | 0.00 | 0.00 | 72 | 1013.4 |
| 20260902021413 | 61 | 77 | 0.0 | 0.0 | 0.00 | 0.00 | 0.00 | 72 | 1013.6 |
| 20260902020909 | 61 | 77 | 0.0 | 0.0 | 0.00 | 0.00 | 0.00 | 72 | 1013.6 |
| 20260902020405 | 61 | 76 | 0.0 | 0.0 | 0.00 | 0.00 | 0.00 | 72 | 1013.7 |
| 20260902015900 | 61 | 77 | 0.0 | 0.0 | 0.00 | 0.00 | 0.00 | 72 | 1013.6 |
| 20260902015355 | 62 | 77 | 0.0 | 0.0 | 0.00 | 0.00 | 0.00 | 72 | 1013.7 |
| 20260902014851 | 61 | 77 | 0.0 | 0.0 | 0.00 | 0.00 | 0.00 | 72 | 1013.6 |
| 20260902014348 | 62 | 77 | 0.0 | 0.0 | 0.00 | 0.00 | 0.00 | 72 | 1013.5 |
| 20260902013847 | 62 | 77 | 0.0 | 0.0 | 0.00 | 0.00 | 0.00 | 72 | 1013.4 |
| 20260902013342 | 62 | 51 | 0.0 | 0.0 | 0.00 | 0.00 | 0.00 | 71 | 1013.4 |
| 20260902012838 | 62 | 51 | 0.0 | 0.0 | 0.00 | 0.00 | 0.00 | 71 | 1013.6 |
| 20260902012334 | 62 | 53 | 0.0 | 0.0 | 0.00 | 0.00 | 0.00 | 70 | 1013.4 |
| 20260902011829 | 63 | 50 | 0.0 | 0.0 | 0.00 | 0.00 | 0.00 | 69 | 1013.7 |
| 20260902011324 | 63 | 42 | 0.0 | 0.0 | 0.00 | 0.00 | 0.00 | 68 | 1013.5 |
| 20260902010823 | 63 | 49 | 0.0 | 0.0 | 0.00 | 0.00 | 0.00 | 70 | 1013.5 |
| 20260902010318 | 62 | 62 | 0.0 | 0.0 | 0.00 | 0.00 | 0.00 | 69 | 1013.5 |
| 20260902005817 | 63 | 59 | 0.0 | 0.0 | 0.00 | 0.00 | 0.00 | 70 | 1013.7 |
| 20260902005312 | 62 | 60 | 0.0 | 0.0 | 0.00 | 0.00 | 0.00 | 71 | 1013.3 |
| 20260902004807 | 62 | 60 | 0.0 | 0.0 | 0.00 | 0.00 | 0.00 | 71 | 1013.4 |
| 20260902004302 | 62 | 53 | 0.0 | 0.0 | 0.00 | 0.00 | 0.00 | 70 | 1013.4 |
| 20260902003756 | 62 | 53 | 0.0 | 0.0 | 0.00 | 0.00 | 0.00 | 71 | 1013.3 |
| 20260902003252 | 62 | 35 | 0.0 | 0.0 | 0.00 | 0.00 | 0.00 | 70 | 1013.5 |
| 20260902002748 | 62 | 61 | 0.0 | 0.0 | 0.00 | 0.00 | 0.00 | 70 | 1013.4 |
| 20260902002247 | 62 | 61 | 0.0 | 0.0 | 0.00 | 0.00 | 0.00 | 70 | 1013.4 |
| 20260902001743 | 63 | 53 | 0.0 | 0.0 | 0.00 | 0.00 | 0.00 | 70 | 1013.2 |
| 20260902001238 | 63 | 54 | 0.0 | 1.0 | 0.00 | 0.00 | 0.00 | 69 | 1013.5 |
| 20260902000738 | 63 | 52 | 0.0 | 0.0 | 0.00 | 0.00 | 0.00 | 68 | 1013.2 |
| 20260902000233 | 63 | 46 | 0.0 | 0.0 | 0.00 | 0.00 | 0.00 | 67 | 1013.3 |
| 20260901235727 | 64 | 4 | 0.0 | 0.0 | 0.00 | 0.00 | 0.00 | 66 | 1013.1 |
| 20260901235222 | 64 | 14 | 0.0 | 0.0 | 0.00 | 0.00 | 0.00 | 66 | 1013.3 |
| 20260901234722 | 64 | 59 | 0.0 | 0.0 | 0.00 | 0.00 | 0.00 | 67 | 1013.1 |
| 20260901234222 | 64 | 56 | 0.0 | 0.0 | 0.00 | 0.00 | 0.00 | 67 | 1013.3 |
| 20260901233716 | 64 | 55 | 0.0 | 0.0 | 0.00 | 0.00 | 0.00 | 68 | 1012.9 |
| 20260901233212 | 64 | 63 | 0.0 | 0.0 | 0.00 | 0.00 | 0.00 | 68 | 1013.2 |
| 20260901232707 | 64 | 53 | 0.0 | 0.0 | 0.00 | 0.00 | 0.00 | 67 | 1013.4 |
| 20260901232202 | 64 | 55 | 0.0 | 0.0 | 0.00 | 0.00 | 0.00 | 68 | 1013.2 |
| 20260901231659 | 64 | 46 | 0.0 | 3.0 | 0.00 | 0.00 | 0.00 | 68 | 1013.3 |
| 20260901231154 | 64 | 32 | 0.0 | 0.0 | 0.00 | 0.00 | 0.00 | 68 | 1013.2 |
| 20260901230650 | 64 | 61 | 1.0 | 3.0 | 0.00 | 0.00 | 0.00 | 67 | 1013.2 |
| 20260901230150 | 64 | 13 | 0.0 | 0.0 | 0.00 | 0.00 | 0.00 | 68 | 1013.3 |
| 20260901225645 | 64 | 47 | 1.0 | 2.0 | 0.00 | 0.00 | 0.00 | 67 | 1013.4 |
| 20260901225139 | 65 | 56 | 0.0 | 0.0 | 0.00 | 0.00 | 0.00 | 67 | 1013.3 |
| 20260901224636 | 65 | 55 | 0.0 | 0.0 | 0.00 | 0.00 | 0.00 | 67 | 1013.3 |
| 20260901224132 | 65 | 55 | 0.0 | 2.0 | 0.00 | 0.00 | 0.00 | 67 | 1013.4 |
| 20260901223627 | 64 | 54 | 0.0 | 0.0 | 0.00 | 0.00 | 0.00 | 68 | 1013.3 |
| 20260901223122 | 64 | 57 | 0.0 | 0.0 | 0.00 | 0.00 | 0.00 | 69 | 1013.4 |
| 20260901222618 | 64 | 53 | 0.0 | 0.0 | 0.00 | 0.00 | 0.00 | 69 | 1013.4 |
| 20260901222114 | 64 | 48 | 0.0 | 0.0 | 0.00 | 0.00 | 0.00 | 70 | 1013.3 |
| 20260901221610 | 63 | 54 | 0.0 | 0.0 | 0.00 | 0.00 | 0.00 | 71 | 1013.4 |
| 20260901221106 | 63 | 60 | 0.0 | 0.0 | 0.00 | 0.00 | 0.00 | 73 | 1013.3 |
| 20260901220604 | 63 | 60 | 0.0 | 0.0 | 0.00 | 0.00 | 0.00 | 77 | 1013.5 |
| 20260901220104 | 62 | 60 | 0.0 | 0.0 | 0.00 | 0.00 | 0.00 | 80 | 1013.5 |
| 20260901215602 | 62 | 59 | 0.0 | 0.0 | 0.00 | 0.00 | 0.00 | 79 | 1013.5 |
| 20260901215056 | 62 | 60 | 0.0 | 0.0 | 0.00 | 0.00 | 0.00 | 78 | 1013.4 |
| 20260901214555 | 63 | 61 | 0.0 | 0.0 | 0.00 | 0.00 | 0.00 | 77 | 1013.3 |
| 20260901214050 | 64 | 60 | 0.0 | 0.0 | 0.00 | 0.00 | 0.00 | 75 | 1013.2 |
| 20260901213549 | 64 | 60 | 0.0 | 0.0 | 0.00 | 0.00 | 0.00 | 74 | 1013.1 |
| 20260901213044 | 64 | 60 | 0.0 | 0.0 | 0.00 | 0.00 | 0.00 | 72 | 1013.1 |
| 20260901212544 | 64 | 60 | 0.0 | 0.0 | 0.00 | 0.00 | 0.00 | 72 | 1013.4 |
| 20260901212040 | 65 | 60 | 0.0 | 0.0 | 0.00 | 0.00 | 0.00 | 71 | 1013.2 |
| 20260901211535 | 64 | 60 | 0.0 | 0.0 | 0.00 | 0.00 | 0.00 | 70 | 1013.2 |
| 20260901211032 | 64 | 60 | 0.0 | 0.0 | 0.00 | 0.00 | 0.00 | 70 | 1013.4 |
| 20260901210526 | 64 | 62 | 0.0 | 0.0 | 0.00 | 0.00 | 0.00 | 70 | 1013.5 |
| 20260901210023 | 64 | 7 | 0.0 | 0.0 | 0.00 | 0.00 | 0.00 | 72 | 1013.2 |
| 20260901205518 | 64 | 6 | 0.0 | 0.0 | 0.00 | 0.00 | 0.00 | 73 | 1013.4 |
| 20260901205012 | 64 | 6 | 0.0 | 0.0 | 0.00 | 0.00 | 0.00 | 73 | 1013.5 |
| 20260901204509 | 64 | 6 | 0.0 | 0.0 | 0.00 | 0.00 | 0.00 | 72 | 1013.4 |
| 20260901204009 | 64 | 6 | 0.0 | 0.0 | 0.00 | 0.00 | 0.00 | 74 | 1013.4 |
| 20260901203503 | 63 | 6 | 0.0 | 0.0 | 0.00 | 0.00 | 0.00 | 74 | 1013.3 |
| 20260901202958 | 63 | 5 | 0.0 | 0.0 | 0.00 | 0.00 | 0.00 | 76 | 1013.3 |
| 20260901202454 | 63 | 5 | 0.0 | 0.0 | 0.00 | 0.00 | 0.00 | 77 | 1013.7 |
| 20260901201949 | 63 | 5 | 0.0 | 0.0 | 0.00 | 0.00 | 0.00 | 75 | 1013.4 |
| 20260901201443 | 63 | 5 | 0.0 | 0.0 | 0.00 | 0.00 | 0.00 | 73 | 1013.3 |
| 20260901200938 | 63 | 5 | 0.0 | 0.0 | 0.00 | 0.00 | 0.00 | 73 | 1013.6 |
| 20260901200433 | 63 | 5 | 0.0 | 0.0 | 0.00 | 0.00 | 0.00 | 73 | 1013.5 |
| 20260901195932 | 63 | 5 | 0.0 | 0.0 | 0.00 | 0.00 | 0.00 | 72 | 1013.4 |
| 20260901195431 | 63 | 5 | 0.0 | 0.0 | 0.00 | 0.00 | 0.00 | 72 | 1013.4 |
| 20260901194926 | 63 | 5 | 0.0 | 0.0 | 0.00 | 0.00 | 0.00 | 74 | 1013.5 |
| 20260901194420 | 63 | 5 | 0.0 | 0.0 | 0.00 | 0.00 | 0.00 | 72 | 1013.6 |
| 20260901193917 | 64 | 4 | 0.0 | 0.0 | 0.00 | 0.00 | 0.00 | 72 | 1013.4 |
| 20260901193416 | 63 | 5 | 0.0 | 0.0 | 0.00 | 0.00 | 0.00 | 74 | 1013.4 |
| 20260901192916 | 63 | 55 | 0.0 | 0.0 | 0.00 | 0.00 | 0.00 | 73 | 1013.5 |
| 20260901192412 | 62 | 5 | 0.0 | 0.0 | 0.00 | 0.00 | 0.00 | 73 | 1013.8 |
| 20260901191908 | 62 | 5 | 0.0 | 0.0 | 0.00 | 0.00 | 0.00 | 74 | 1013.7 |